ZGNN

Details ICAO ZGNN (NNG)
Name WUXU
Region China
Timezone Asia/Chongqing (UTC+8.0)
Plans Departing 35
Arriving 44
Stats Elevation 421 ft / 128 m (AMSL)
Location 22.607958° 108.172190°
Runways 1
Magnetic Variation 1.975° W
Sunrise 2018-05-25 22:04:56 UTC / 2018-05-26 06:04:56 Local
Sunset 2018-05-26 11:26:35 UTC / 2018-05-26 19:26:35 Local
Advertisement - Login to hide

Runways

ID Width Length Bearing (true) Bearing (mag) Surface Threshold Offset Overrun Length
05 148 ft / 45 m 8,884 ft / 2,708 m 46.67° 48.65° Concrete 0 ft / 0 m 197 ft / 60 m
23 148 ft / 45 m 8,884 ft / 2,708 m 226.68° 228.66° Concrete 0 ft / 0 m 197 ft / 60 m

Approach Navaids

Runway Type Ident Frequency Range Bearing (true) Bearing (mag) Slope Elevation
05 Localiser IUY 110.90 MHz 18 nm / 33 km 46.54° 48.51° - 420 ft / 128 m (AMSL)
05 Glidescope IUY 110.90 MHz 10 nm / 19 km 46.67° 48.65° 3.00° 420 ft / 128 m (AMSL)
05 DME IUY 110.90 MHz 18 nm / 33 km - - - 410 ft / 125 m (AMSL)

Map

Weather


0- 5 10 15 20 25 30 35+ Temperature / ° C

Clouds and Precipitation
Forecast for 2018-05-26 12:00 UTC. Updated 3 hours ago

Ground ~20,000 ft ~40,000 ft Winds

METAR

ZGNN 261400Z 12002MPS CAVOK 28/25 Q1007 NOSIG

TAF

Not found

Frequencies

Ground 121.75 MHz NANNING GND
Tower 118.20 MHz NANNING TWR
Tower 130.00 MHz NANNING TWR
Warning: Do not use this data for real-world aviation or navigation. No guarantee of current accuracy is given.